Regional Weather Roundup
Issued by NWS

Home | Current Version | Previous Version | Text Only | Print | Product List | Glossary Off
Versions: 1 2 3 4 5 6 7 8 9 10 11 12 13 14 15 16 17 18 19 20 21 22 23 24 25 26 27 28 29 30 31 32 33 34 35 36 37 38 39 40 41 42 43 44 45 46 47 48 49 50

342
ASUS43 KBIS 051102
RWRND

NORTH DAKOTA REGIONAL WEATHER ROUNDUP
NATIONAL WEATHER SERVICE BISMARCK ND
600 AM CDT THU MAY 05 2016

NOTE: "FAIR" INDICATES FEW OR NO CLOUDS BELOW 12,000 FEET WITH NO
SIGNIFICANT WEATHER AND/OR OBSTRUCTIONS TO VISIBILITY.


NDZ001>003-009>011-017-051200-
NORTHWEST NORTH DAKOTA

CITY           SKY/WX    TMP DP  RH WIND       PRES   REMARKS
WILLISTON      CLEAR     48  41  76 SW5       29.86R
MINOT          CLEAR     65  42  43 SW14      29.84S
MINOT AFB      CLEAR     61  44  53 SW13      29.82S
$$

NDZ018>021-031>035-040>046-051200-
SOUTHWEST NORTH DAKOTA

CITY           SKY/WX    TMP DP  RH WIND       PRES   REMARKS
BISMARCK       CLEAR     53  44  71 CALM      29.92F HAZE
DICKINSON      CLEAR     50  41  71 S13       29.90S
GARRISON         N/A     52  43  71 CALM      29.89S
HETTINGER ARPT CLEAR     52  39  61 SE5       29.95F
$$

NDZ004>008-012>016-024-026-027-054-051200-
NORTHEAST NORTH DAKOTA

CITY           SKY/WX    TMP DP  RH WIND       PRES   REMARKS
GRAND FORKS    PTCLDY    50  33  52 S7        29.83S
GRND FRKS AFB  CLEAR     64  43  45 W15       29.81F
DEVILS LAKE    CLEAR     56  45  66 SW9       29.86S
$$

NDZ022-023-025-028>030-036>039-047>053-051200-
SOUTHEAST NORTH DAKOTA

CITY           SKY/WX    TMP DP  RH WIND       PRES   REMARKS
FARGO          CLEAR     53  31  42 S14       29.90S
JAMESTOWN      CLEAR     58  42  55 W15       29.89S
$$





USA.gov is the U.S. government's official web portal to all federal, state and local government web resources and services.